Torna al catalogo

SAKURA 2B

CS-2B

AttivoComunicazioniGEO
NORAD 14248·PAYLOAD·🇯🇵 Japan

Lanciato Aug 5, 1983 da Tanegashima Space Center

Loading…

TLE

AggiornatoSource: Space-Track

Epoca: Sep 14, 2026, 00:01 UTC

1 14248U 83081A   26257.00086308 -.00000247  00000-0  00000-0 0  9990
2 14248  10.9638 323.9357 0001138  27.6831 341.5749  0.98814556124567

Traccia SAKURA 2B in tempo reale con AllMySat

Download on the App Store